[[[{"header":{"parameterUnit":"kt","parameterCategory":2,"dx":1,"dy":1,"la1":30.253999710083008,"la2":30.299108505249023,"lo1":-89.0895004272461,"lo2":-89.04439544677734,"nx":28,"ny":28,"refTime":"2022-10-19T21:00:00:Z","depth":0,"parameterNumber":1,"parameterNumberName":"U-component_of_WINDS"},"data":[3.7783,3.7793,3.7764,3.7762,3.7736,3.7729,3.7717,3.7699,3.7677,3.7665,3.7653,3.7624,3.7589,3.7567,3.7552,3.7539,3.7533,3.7561,3.754,3.7448,3.7434,3.7419,3.7414,3.7561,3.7561,3.7638,3.7638,3.7639,3.7723,3.7697,3.7687,3.7657,3.7649,3.7606,3.7579,3.7574,3.7569,3.7541,3.7527,3.7514,3.75,3.7453,3.7434,3.7438,3.7415,3.7434,3.7432,3.7427,3.7329,3.7324,3.7453,3.7453,3.7453,3.7453,3.7453,3.7453,3.7605,3.7613,3.7577,3.7565,3.7542,3.7522,3.7524,3.7486,3.7476,3.7452,3.7417,3.741,3.7375,3.7334,3.7313,3.7306,3.7278,3.7289,3.7291,3.7294,3.7302,3.7194,3.7301,3.7301,3.73,3.73,3.73,0,3.7509,3.7483,3.7471,3.745,3.744,3.742,3.7397,3.7397,3.7329,3.7323,3.7311,3.7299,3.7274,3.7259,3.7232,3.7206,3.7157,3.7149,3.7156,3.7171,3.719,3.7179,3.7019,3.7144,3.7143,3.7142,3.7141,3.7141,3.7387,3.7399,3.7345,3.734,3.7319,3.7313,3.7302,3.7241,3.7232,3.7193,3.7202,3.7186,3.7169,3.7154,3.7107,3.7088,3.7063,3.7115,3.7059,3.7076,3.7061,3.706,3.7061,3.7125,3.7127,3.7129,3.713,0,3.7321,3.7269,3.7277,3.722,3.7207,3.7222,3.7174,3.7178,3.714,3.714,3.7136,3.7075,3.7063,3.7007,3.6982,3.6953,3.6977,3.6955,3.699,3.6981,3.702,3.7017,3.7159,3.7174,3.7024,3.7025,3.7027,0,3.7194,3.7212,3.7133,3.714,3.7158,3.7094,3.7113,3.7081,3.7048,3.7047,3.6983,3.6984,3.6911,3.6904,3.686,3.687,3.6866,3.6843,3.683,3.6847,3.685,3.6838,3.683,3.6804,3.6803,3.6803,3.6802,0,3.7094,3.7072,3.7083,3.7069,3.7009,3.7016,3.6991,3.6952,3.6942,3.6919,3.6911,3.6889,3.6876,3.686,3.6804,3.6769,3.6816,3.6755,3.6792,3.6793,3.6802,3.6801,3.6945,3.6801,3.6801,3.6801,3.6801,0,3.6982,3.696,3.6985,3.6933,3.6929,3.6937,3.691,3.6903,3.6866,3.6839,3.682,3.6768,3.6773,3.6717,3.6722,3.6691,3.6683,3.6661,3.6663,3.6657,3.6595,3.6681,3.6825,3.6837,3.6657,3.6655,3.6654,0,3.6881,3.6891,3.6835,3.6859,3.6855,3.6781,3.6789,3.6757,3.6721,3.6712,3.6672,3.6661,3.6608,3.6596,3.6606,3.6563,3.6603,3.6556,3.6542,3.6542,3.6552,3.6685,3.6719,3.6801,3.6638,3.664,3.6641,0,3.6795,3.672,3.6728,3.6708,3.6656,3.6652,3.666,3.6635,3.6632,3.6604,3.6608,3.6592,3.6551,3.6532,3.6486,3.6499,3.6574,3.6452,3.6449,3.6474,3.6625,3.6658,3.6672,3.654,3.6542,3.6544,3.6628,0,3.6636,3.6632,3.6652,3.661,3.6598,3.6609,3.6546,3.6541,3.6499,3.6458,3.6464,3.642,3.6393,3.6394,3.6351,3.64,3.6382,3.6337,3.6275,3.6364,3.639,3.64,3.6242,3.624,3.6238,3.6236,0,0,3.6551,3.6544,3.6479,3.6484,3.6469,3.6389,3.6407,3.6383,3.6335,3.6327,3.6293,3.6263,3.6228,3.6241,3.6264,3.6253,3.6255,3.6225,3.6322,3.6332,3.6341,3.637,3.6383,3.6233,3.6232,3.6232,3.6231,0,3.6478,3.6446,3.6464,3.6437,3.6393,3.6348,3.6354,3.6295,3.6269,3.6273,3.6205,3.62,3.6177,3.6149,3.6132,3.6224,3.6171,3.6221,3.6291,3.6306,3.6319,3.6329,3.6361,3.6373,3.6226,3.6227,3.6227,0,3.6381,3.6338,3.6339,3.6301,3.627,3.6267,3.6188,3.6188,3.6184,3.6093,3.6098,3.6064,3.6021,3.6041,3.6047,3.6016,3.6098,3.606,3.607,3.6068,3.6079,3.6094,3.6108,3.5931,3.593,3.593,0,0,3.6326,3.6322,3.6254,3.628,3.6266,3.6199,3.6191,3.6145,3.6108,3.6094,3.6049,3.6015,3.6,3.5992,3.5975,3.6006,3.5991,3.6026,3.604,3.6052,3.6057,3.6071,3.6086,3.5927,3.5927,3.5927,0,0,3.6299,3.6221,3.6184,3.6206,3.6174,3.6107,3.6125,3.6077,3.6055,3.6046,3.5968,3.5955,3.5973,3.5942,3.5911,3.5951,3.5891,3.5897,3.597,3.5986,3.6,3.6005,3.582,0,0,0,0,0,3.619,3.6231,3.6198,3.6192,3.6141,3.6126,3.6119,3.6056,3.6016,3.6032,3.5987,3.593,3.5909,3.5881,3.5875,3.5909,3.589,3.5896,3.5903,3.6003,3.6021,3.6037,0,0,0,0,0,0,3.6187,3.618,3.6197,3.6133,3.6121,3.6124,3.6042,3.6026,3.6012,3.6002,3.5941,3.5928,3.5873,3.5879,3.5875,3.5908,3.5822,3.5892,3.5898,3.5903,3.6009,3.6024,3.6037,0,0,0,0,0,3.6184,3.6178,3.6112,3.6132,3.6121,3.6048,3.604,3.6025,3.6014,3.5942,3.5928,3.5967,3.5876,3.5868,3.5876,3.5911,3.5824,3.5823,3.5896,3.59,3.5904,3.6017,0,0,0,0,0,0,3.6182,3.6165,3.6109,3.6103,3.6111,3.6046,3.6034,3.6026,3.5954,3.594,3.5965,3.5957,3.5879,3.5872,3.5867,3.5916,3.5826,3.5824,3.5824,3.5899,3.5903,3.5906,0,0,0,0,0,0,3.6167,3.6161,3.6106,3.6083,3.6074,3.6045,3.6034,3.6031,3.5954,3.598,3.5971,3.5962,3.5886,3.5875,3.587,3.5868,3.5827,3.5826,3.5825,3.5824,3.5902,3.5905,0,0,0,0,0,0,3.6163,3.6158,3.6084,3.6077,3.6069,3.6001,3.6041,3.5991,3.5936,3.5984,3.5929,3.5926,3.5891,3.5885,3.5874,3.5873,3.5869,3.5827,3.5826,3.5826,3.5825,0,0,0,0,0,0,0,3.616,3.6215,3.6142,3.6072,3.6065,3.6052,3.605,3.6048,3.5935,3.5932,3.593,3.5927,3.5833,3.5832,3.5831,3.5878,0,0,3.5827,3.5826,0,0,0,0,0,0,0,0,3.6216,3.6215,3.6142,3.6141,3.614,3.6051,3.605,3.6049,3.5935,3.5932,3.593,3.5928,3.5833,3.5832,3.5831,0,0,0,0,0,0,0,0,0,0,0,0,0,0,0,3.6142,3.6141,0,3.6051,3.605,3.6049,3.5934,3.5933,3.5931,3.5929,3.5833,3.5832,3.5831,0,0,0,0,0,0,0,0,0,0,0,0,0,0,0,0,0,0,0,0,0,0,0,0,0,0,0,0,0,0,0,0,0,0,0,0,0,0,0,0,0,0,0,0,0,0,0,0,0,0,0,0,0,0,0,0,0,0,0,0,0,0,0,0,0,0,0,0,0]}],[{"header":{"parameterUnit":"kt","parameterCategory":2,"dx":1,"dy":1,"la1":30.253999710083008,"la2":30.299108505249023,"lo1":-89.0895004272461,"lo2":-89.04439544677734,"nx":28,"ny":28,"refTime":"2022-10-19T21:00:00:Z","depth":0,"parameterNumber":2,"parameterNumberName":"V-component_of_WINDS"},"data":[-6.8573,-6.8722,-6.8762,-6.895,-6.9018,-6.9153,-6.9213,-6.9296,-6.9371,-6.9536,-6.9637,-6.9692,-6.9782,-6.9911,-7.0022,-7.0043,-7.0086,-7.0109,-7.013,-6.9992,-6.9975,-6.9959,-6.9926,-7.0119,-7.0119,-7.0265,-7.0266,-7.0267,-6.8465,-6.8534,-6.8646,-6.8782,-6.8877,-6.8879,-6.8986,-6.9065,-6.9186,-6.9281,-6.9383,-6.9531,-6.9652,-6.9736,-6.9859,-6.9928,-6.9934,-6.9958,-6.9951,-6.9965,-6.982,-6.9784,-6.995,-6.995,-6.995,-6.995,-6.995,-6.995,-6.8279,-6.8368,-6.8473,-6.8595,-6.8675,-6.8765,-6.8856,-6.8922,-6.9031,-6.9166,-6.9193,-6.9329,-6.9431,-6.9599,-6.9665,-6.9771,-6.9752,-6.9789,-6.9798,-6.9806,-6.9808,-6.9585,-6.9794,-6.9794,-6.9794,-6.9794,-6.9793,0,-6.8154,-6.8182,-6.8293,-6.8415,-6.8507,-6.8606,-6.8703,-6.8761,-6.8832,-6.892,-6.9049,-6.913,-6.929,-6.9415,-6.954,-6.9601,-6.9609,-6.9616,-6.9641,-6.9627,-6.9599,-6.9612,-6.937,-6.9608,-6.9607,-6.9606,-6.9605,-6.9605,-6.7965,-6.8066,-6.8197,-6.8269,-6.8333,-6.8449,-6.8526,-6.8582,-6.8661,-6.8789,-6.8864,-6.8991,-6.9095,-6.9296,-6.937,-6.9489,-6.9493,-6.9579,-6.9511,-6.9494,-6.949,-6.9482,-6.9491,-6.959,-6.9592,-6.9593,-6.9594,0,-6.7855,-6.7921,-6.8089,-6.821,-6.8243,-6.8344,-6.8446,-6.8537,-6.8591,-6.8723,-6.8757,-6.8842,-6.8968,-6.903,-6.9186,-6.9214,-6.9377,-6.9381,-6.9341,-6.9344,-6.9424,-6.9414,-6.9682,-6.9719,-6.9523,-6.9525,-6.9527,0,-6.7718,-6.7848,-6.7939,-6.8033,-6.8178,-6.8232,-6.8373,-6.8434,-6.8524,-6.8629,-6.865,-6.8747,-6.8811,-6.8917,-6.8959,-6.9104,-6.9134,-6.9163,-6.9171,-6.9159,-6.9155,-6.9198,-6.9187,-6.9192,-6.9191,-6.919,-6.9189,0,-6.7535,-6.7737,-6.7891,-6.7948,-6.8089,-6.816,-6.8222,-6.8323,-6.8398,-6.8506,-6.8555,-6.8677,-6.8742,-6.8835,-6.8887,-6.8838,-6.9067,-6.901,-6.9095,-6.9094,-6.914,-6.9135,-6.9361,-6.9187,-6.9186,-6.9186,-6.9185,0,-6.7433,-6.7544,-6.7758,-6.7875,-6.7926,-6.8028,-6.8151,-6.8253,-6.8359,-6.8392,-6.8477,-6.8497,-6.8632,-6.8571,-6.8756,-6.8677,-6.874,-6.878,-6.8788,-6.88,-6.8728,-6.8842,-6.9054,-6.9076,-6.8815,-6.8812,-6.8809,0,-6.7203,-6.7439,-6.7486,-6.769,-6.7806,-6.7821,-6.7935,-6.8029,-6.8083,-6.8188,-6.8247,-6.8367,-6.8335,-6.8381,-6.8465,-6.8529,-6.8632,-6.8518,-6.8664,-6.8668,-6.8631,-6.8828,-6.8842,-6.9002,-6.8771,-6.8775,-6.8778,0,-6.7032,-6.7205,-6.7238,-6.7304,-6.7438,-6.7537,-6.7669,-6.78,-6.7867,-6.7972,-6.8081,-6.8254,-6.8235,-6.8311,-6.834,-6.8424,-6.8564,-6.8393,-6.8396,-6.8418,-6.8758,-6.877,-6.8797,-6.8565,-6.857,-6.8573,-6.8747,0,-6.6857,-6.6985,-6.7079,-6.7225,-6.7312,-6.7444,-6.7511,-6.7592,-6.7612,-6.7665,-6.783,-6.7924,-6.8056,-6.8105,-6.8125,-6.8299,-6.8279,-6.8258,-6.82,-6.833,-6.8388,-6.8413,-6.8107,-6.8106,-6.8105,-6.8104,0,0,-6.6618,-6.6802,-6.6851,-6.6982,-6.7058,-6.7071,-6.7206,-6.7281,-6.7432,-6.7483,-6.7452,-6.7707,-6.7785,-6.7977,-6.8023,-6.8078,-6.8114,-6.8066,-6.8268,-6.8286,-6.8303,-6.8365,-6.8389,-6.8102,-6.8101,-6.8101,-6.8101,0,-6.6567,-6.6649,-6.6784,-6.6864,-6.6985,-6.7036,-6.7068,-6.7189,-6.723,-6.7393,-6.74,-6.7506,-6.771,-6.779,-6.7857,-6.8046,-6.8043,-6.8082,-6.816,-6.8255,-6.8275,-6.8292,-6.8356,-6.8379,-6.8098,-6.8098,-6.8098,0,-6.6408,-6.6498,-6.6571,-6.6746,-6.6825,-6.6946,-6.6903,-6.7033,-6.7123,-6.7129,-6.729,-6.7351,-6.7464,-6.7638,-6.7719,-6.7693,-6.7975,-6.7899,-6.7908,-6.7917,-6.8012,-6.8035,-6.8056,-6.778,-6.7779,-6.7777,0,0,-6.6354,-6.6474,-6.6589,-6.674,-6.679,-6.6868,-6.6939,-6.6966,-6.7069,-6.711,-6.7187,-6.7286,-6.7404,-6.7481,-6.7596,-6.778,-6.7805,-6.7857,-6.7872,-6.7884,-6.7899,-6.7998,-6.8021,-6.7772,-6.7772,-6.7772,0,0,-6.6328,-6.6467,-6.6469,-6.6654,-6.6752,-6.6873,-6.6962,-6.6967,-6.7078,-6.707,-6.712,-6.7149,-6.7314,-6.7373,-6.7296,-6.7576,-6.7517,-6.7537,-6.753,-6.755,-6.7565,-6.7546,-6.7261,0,0,0,0,0,-6.631,-6.645,-6.645,-6.6491,-6.6713,-6.6873,-6.6902,-6.6947,-6.6904,-6.6974,-6.7039,-6.7033,-6.7341,-6.7274,-6.7313,-6.7398,-6.7705,-6.7717,-6.7728,-6.7763,-6.7783,-6.78,0,0,0,0,0,0,-6.6327,-6.6377,-6.6447,-6.6573,-6.6623,-6.6869,-6.6806,-6.6822,-6.6898,-6.6895,-6.7021,-6.7037,-6.7078,-6.7257,-6.7291,-6.7371,-6.725,-6.771,-6.772,-6.7729,-6.777,-6.7786,-6.78,0,0,0,0,0,-6.634,-6.638,-6.6724,-6.6571,-6.6615,-6.6709,-6.6801,-6.6814,-6.6873,-6.6976,-6.6992,-6.6901,-6.7079,-6.7111,-6.7278,-6.7354,-6.7226,-6.7239,-6.7716,-6.7724,-6.7731,-6.7778,0,0,0,0,0,0,-6.635,-6.6393,-6.6734,-6.6749,-6.6522,-6.6696,-6.6725,-6.6807,-6.695,-6.6968,-6.6857,-6.6853,-6.7082,-6.7106,-6.7131,-6.7346,-6.7207,-6.722,-6.7228,-6.7722,-6.7729,-6.7734,0,0,0,0,0,0,-6.6372,-6.6406,-6.6742,-6.6677,-6.6685,-6.6684,-6.671,-6.6858,-6.6952,-6.6824,-6.6825,-6.6854,-6.7044,-6.7103,-6.7123,-6.7352,-6.7192,-6.7205,-6.7213,-6.7219,-6.7727,-6.7732,0,0,0,0,0,0,-6.6387,-6.6416,-6.6674,-6.668,-6.6687,-6.6857,-6.6815,-6.7039,-6.6898,-6.6817,-6.6887,-6.6881,-6.7041,-6.7062,-6.7117,-6.7338,-6.7348,-6.7193,-6.7201,-6.7207,-6.7211,0,0,0,0,0,0,0,-6.6399,-6.6193,-6.6646,-6.6682,-6.6688,-6.6887,-6.6891,-6.6895,-6.6897,-6.6892,-6.6888,-6.6884,-6.7122,-6.7135,-6.7149,-6.7327,0,0,-6.7192,-6.7198,0,0,0,0,0,0,0,0,-6.6181,-6.619,-6.6646,-6.6649,-6.6652,-6.6887,-6.6891,-6.6894,-6.6896,-6.6893,-6.6889,-6.6885,-6.7125,-6.7136,-6.7147,0,0,0,0,0,0,0,0,0,0,0,0,0,0,0,-6.6647,-6.6649,0,-6.6888,-6.6891,-6.6893,-6.6896,-6.6893,-6.689,-6.6887,-6.7128,-6.7137,-6.7147,0,0,0,0,0,0,0,0,0,0,0,0,0,0,0,0,0,0,0,0,0,0,0,0,0,0,0,0,0,0,0,0,0,0,0,0,0,0,0,0,0,0,0,0,0,0,0,0,0,0,0,0,0,0,0,0,0,0,0,0,0,0,0,0,0,0,0,0,0]}]]]